Regional Weather Roundup
Issued by NWS

Home | Current Version | Previous Version | Text Only | Print | Product List | Glossary On
Versions: 1 2 3 4 5 6 7 8 9 10 11 12 13 14 15 16 17 18 19 20 21 22 23 24 25 26 27 28 29 30 31 32 33 34 35 36 37 38 39 40 41 42 43 44 45 46 47 48 49 50
000
ASUS44 KEWX 210512
RWRTX
SOUTH TEXAS REGIONAL WEATHER ROUNDUP
NATIONAL WEATHER SERVICE AUSTIN/SAN ANTONIO TX
1100 PM CST MON FEB 20 2017

NOTE: "FAIR" INDICATED FEW OR NO CLOUDS BELOW 12,000 FEET WITH NO
SIGNIFICANT WEATHER AND/OR OBSTRUCTIONS TO VISIBILITY.

* - THESE STATIONS ARE NOT NWS OR FAA STATIONS...AND ARE NOT SUBJECT
    TO NWS AND FAA QUALITY CONTROL.

TXZ171-172-183>190-210600-
TEXAS HILL COUNTRY AND EDWARDS PLATEAU

CITY           SKY/WX    TMP DP  RH WIND       PRES   REMARKS
JUNCTION       CLEAR     56  40  55 W6        30.03R
*LLANO         CLEAR     54  46  76 CALM      29.99R
BURNET         CLEAR     54  52  93 CALM      29.97R
*HORSESHOE BAY   N/A     54  47  76 W3        29.95R
*KERRVILLE     CLEAR     54  44  71 N6        30.01R
*FREDERICKSBRG CLEAR     56  39  54 W5        30.00R
*ROCKSPRINGS   CLEAR     54  37  54 NW8       30.09R
*BOERNE STAGE  CLEAR     55  39  54 W6        30.00R
*CASTROVILLE   CLEAR     61  41  48 W13G20    29.99S
HONDO          CLEAR     60  44  55 W14       29.99S
*UVALDE        CLEAR     57  42  57 CALM      30.03S
DEL RIO        CLEAR     58  40  51 N6        30.06R
LAUGHLIN AFB   NOT AVBL
CARRIZO SPRGS  CLEAR     63  39  42 W9        30.03R
*EAGLE PASS    MOCLDY    59  39  47 W8        30.06R
$$

TXZ173-191>194-202-209-217>225-228-210600-
CENTRAL AND SOUTH CENTRAL TEXAS

CITY           SKY/WX    TMP DP  RH WIND       PRES   REMARKS
GEORGETOWN     CLOUDY    59  55  88 S5        29.94S
AUSTIN/BERGSTM LGT RAIN  61  58  90 E7        29.98R
AUSTIN/MABRY   CLOUDY    60  56  86 SE8       29.95S
*AUSTIN/EXEC   CLOUDY    57  57 100 S12       29.97R
*LAGO VISTA    CLOUDY    58  57  96 CALM      29.95F
SAN MARCOS     CLEAR     55  54  94 S8        29.96S
NEW BRAUNFELS  CLEAR     54  50  86 SE8       29.94S
RANDOLPH AFB   CLEAR     61  46  56 W6        29.96S
PT SAN ANTONIO CLEAR     60  44  55 W3        29.95R
SAN ANTONIO    PTCLDY    60  44  55 W9        29.97S
STINSON FIELD  CLEAR     59  46  62 W7        29.95S
*PLEASANTON    PTCLDY    60  44  55 SW5       29.98S
*LA GRANGE     MOCLDY    61  60  97 S10       29.95S
*GIDDINGS      CLEAR     57  56  97 S6        29.97S
*GONZALES      PTCLDY    60  60 100 S10       29.97S
$$

TXZ163>164-176>182-195>201-210>213-226-227-235-210600-
SOUTHEAST TEXAS

CITY           SKY/WX    TMP DP  RH WIND       PRES   REMARKS
COLLEGE STN    CLEAR     58  57  97 MISG      29.96F
*BRYAN         CLEAR     58  58 100 S6        29.97F
*CALDWELL      NOT AVBL
*CROCKETT      CLEAR     54  54 100 CALM      29.99S FOG
*BRENHAM       PTCLDY    59  59  99 S3        29.97S
HUNTSVILLE     CLOUDY    60  58  92 S10       29.97F
CONROE         MOCLDY    59  58  96 S7        29.99S FOG
HOUSTON BUSH   PTCLDY    59  58  96 S5        30.00S FOG
HOUSTON HOBBY  PTCLDY    58  57  97 SE5       29.99S FOG
*HOUSTON SW AP PTCLDY    57  57 100 CALM      30.00F FOG
PEARLAND       PTCLDY    61  58  90 S5        30.01F FOG
HOUSTON HOOKS  CLOUDY    60  59  96 CALM      29.99S FOG
ELLINGTON FLD  FOG       59  59 100 CALM      30.02R VSB 1/2
SUGAR LAND     PTCLDY    56  56 100 S6        29.99S FOG
*HOUSTON EXEC  PTCLDY    57  57 100 S7        30.00S FOG
*CLEVELAND MUN CLOUDY    59  58  97 S3        30.00S FOG
*WHARTON       CLEAR     59  58  97 SE7       30.01S FOG
*COLUMBUS      FAIR      59  58  94 S8        29.99F
*EAGLE LAKE    NOT AVBL
$$

TXZ214>216-236>238-210600-
THE UPPER TEXAS COAST

CITY           SKY/WX    TMP DP  RH WIND       PRES   REMARKS
*ORANGE        LGT RAIN  60  60  98 CALM      30.05R
PORT ARTHUR    CLOUDY    60  58  92 S5        30.03R
GALVESTON      CLEAR     62  60  93 SW5       30.02S
ANGLETON       PTCLDY    57  56  96 S5        30.00F FOG
*BAY CITY        N/A     57  57 100 SE3       30.01S FOG
PALACIOS       CLEAR     61  59  93 SE7       30.00F
$$

TXZ229>234-239>247-210600-
TEXAS COASTAL BEND AND RIO GRANDE PLAINS

CITY           SKY/WX    TMP DP  RH WIND       PRES   REMARKS
VICTORIA       CLEAR     60  58  92 S8        30.00S
*BEEVILLE      CLEAR     56  56 100 S7        30.01S FOG
ROCKPORT       CLEAR     63  60  90 S5        30.01S
*PORT ARANSAS  CLEAR     65  62  91 S7        30.01F
*PORT LAVACA   CLEAR     58  58 100 CALM      30.00F
*INGLESIDE     CLEAR     62  60  95 S5        30.01S
CORPUS CHRISTI CLEAR     60  60 100 S8        30.02S
CORPUS NAS     CLEAR     63  63 100 S7        30.02R
*ROBSTOWN      CLEAR     62  62 100 S7        30.02S
ALICE          CLEAR     59  59 100 S7        30.02S
KINGSVILLE NAS CLEAR     60  60 100 S8        30.03S
COTULLA        CLEAR     61  43  51 W6        30.01S
*FAITH RANCH   CLEAR     61  43  51 W6        30.06R
LAREDO         CLEAR     63  46  54 W5        30.06S
$$

TXZ248>255-210600-
DEEP SOUTH TEXAS

CITY           SKY/WX    TMP DP  RH WIND       PRES   REMARKS
BROWNSVILLE    CLEAR     60  60 100 CALM      30.05R FOG
PORT ISABEL    CLEAR     61  60  97 CALM      30.04R
*SOUTH PADRE   NOT AVBL
HARLINGEN      CLEAR     59  59 100 S7        30.04R
*HEBBRONVILLE  PTCLDY    60  47  62 CALM      30.07S
MCALLEN        PTCLDY    62  59  90 CALM      30.06R
*WESLACO       CLEAR     61  59  92 S3        30.04S
FALFURRIAS     CLEAR     60  58  92 S6        30.04S
EDINBURG       CLEAR     62  58  88 CALM      30.06R
*ZAPATA        CLEAR     60  47  62 SE3       30.07R
$$

TXZ213>215-236>238-242>244-246-247-251-254-255-210600-
CMAN STATIONS

STATION/POSITION TIME  TEMP    WIND        PRES    WAVE
                       AIR SEA DIR/SP/G            HT/PER
                 (UTC) (F)     (DEG/KT/KT) (MB)    (FT/S)
SABINE PASS      0442   61 68  220/  2/  3 1018.6
SEA RIM ST PARK  0500   60     290/  3/  3 1016.9
NORTH JETTY/GLS  0448          200/  6/  8   N/A
EAGLE POINT      0448   62 66  190/  7/  7 1016.2
MORGANS POINT    0448   61 66  220/  3/  5 1016.1
MISSION/ARANSAS  0400   66                 1017.0
PORT O`CONNOR    0448   64     160/ 10/ 11 1015.7
PORT ARANSAS     0500   66 67  160/ 10/ 11 1016.1
MALAQUITE BEACH  0448   67 69  140/ 10/ 11 1016.9
BAFFIN BAY       0448   66 72  130/  6/  8 1017.0
PORT ISABEL      0448   66 72  160/  2/  3 1017.2
$$

GMZ080-GMZ150>470-210600-
OFFSHORE BUOY REPORTS

STATION/POSITION TIME  TEMP    WIND        PRES    WAVE
                       AIR SEA DIR/SP/G            HT/PER
                 (UTC) (F)     (DEG/KT/KT) (MB)    (FT/S)
20 E GALVESTON   0450   63 64   CALM  /  2 1017.0    2/ 7
90 E PT ARANSAS  0450   68 70  160/  2/  4 1016.4    3/ 7
35 NE PT MANSFLD 0350   69     120/  4/  6 1016.2    4/ 8
200 E PT ISABEL  0450   66 75   50/ 10/ 14 1017.4    6/ 7
$$




USA.gov is the U.S. government's official web portal to all federal, state and local government web resources and services.